| time (UTC) | temp F | wind direction | speed MPH | gust MPH | rain 1hr in | rain 24hr in | rain mn in | humidity % | barometer mb |
| 20260507031205 | 82 | 102 | 29.0 | 38.0 | 0.00 | 0.00 | 0.00 | 82 | 1013.0 |
| 20260507030702 | 82 | 147 | 24.0 | 35.0 | 0.00 | 0.00 | 0.00 | 83 | 1013.2 |
| 20260507030159 | 82 | 104 | 23.0 | 33.0 | 0.00 | 0.00 | 0.00 | 82 | 1013.0 |
| 20260507025657 | 82 | 121 | 23.0 | 35.0 | 0.00 | 0.00 | 0.00 | 82 | 1013.0 |
| 20260507025153 | 81 | 129 | 21.0 | 30.0 | 0.00 | 0.00 | 0.00 | 83 | 1013.1 |
| 20260507024652 | 82 | 115 | 16.0 | 33.0 | 0.00 | 0.00 | 0.00 | 82 | 1013.0 |
| 20260507024148 | 82 | 93 | 20.0 | 45.0 | 0.00 | 0.00 | 0.00 | 82 | 1013.1 |
| 20260507023644 | 82 | 162 | 29.0 | 38.0 | 0.00 | 0.00 | 0.00 | 82 | 1012.9 |
| 20260507023141 | 82 | 108 | 22.0 | 38.0 | 0.00 | 0.00 | 0.00 | 82 | 1012.9 |
| 20260507022638 | 81 | 107 | 34.0 | 45.0 | 0.00 | 0.00 | 0.00 | 82 | 1012.8 |
| 20260507022134 | 81 | 147 | 24.0 | 48.0 | 0.00 | 0.00 | 0.00 | 82 | 1012.8 |
| 20260507021631 | 82 | 111 | 24.0 | 38.0 | 0.00 | 0.00 | 0.00 | 82 | 1012.8 |
| 20260507021126 | 81 | 116 | 21.0 | 48.0 | 0.00 | 0.00 | 0.00 | 82 | 1012.7 |
| 20260507020625 | 81 | 129 | 25.0 | 40.0 | 0.00 | 0.00 | 0.00 | 82 | 1012.8 |
| 20260507020120 | 82 | 122 | 21.0 | 35.0 | 0.00 | 0.00 | 0.00 | 82 | 1012.8 |
| 20260507015619 | 82 | 99 | 33.0 | 40.0 | 0.00 | 0.00 | 0.00 | 82 | 1012.6 |
| 20260507015116 | 82 | 118 | 25.0 | 43.0 | 0.00 | 0.00 | 0.00 | 82 | 1012.6 |
| 20260507014613 | 82 | 123 | 21.0 | 35.0 | 0.00 | 0.00 | 0.00 | 82 | 1012.4 |
| 20260507014108 | 82 | 96 | 23.0 | 45.0 | 0.00 | 0.00 | 0.00 | 82 | 1012.2 |
| 20260507013605 | 82 | 113 | 23.0 | 38.0 | 0.00 | 0.00 | 0.00 | 82 | 1012.0 |
| 20260507013102 | 82 | 129 | 28.0 | 40.0 | 0.00 | 0.00 | 0.00 | 82 | 1012.2 |
| 20260507012600 | 82 | 110 | 22.0 | 43.0 | 0.00 | 0.00 | 0.00 | 82 | 1012.1 |
| 20260507012055 | 82 | 117 | 27.0 | 43.0 | 0.00 | 0.00 | 0.00 | 82 | 1012.0 |
| 20260507011553 | 82 | 114 | 30.0 | 40.0 | 0.00 | 0.00 | 0.00 | 82 | 1012.1 |
| 20260507011049 | 82 | 173 | 27.0 | 43.0 | 0.00 | 0.00 | 0.00 | 82 | 1011.9 |
| 20260507010544 | 82 | 112 | 21.0 | 43.0 | 0.00 | 0.00 | 0.00 | 82 | 1012.0 |
| 20260507010040 | 82 | 110 | 33.0 | 43.0 | 0.00 | 0.00 | 0.00 | 82 | 1011.9 |
| 20260507005538 | 82 | 87 | 23.0 | 33.0 | 0.00 | 0.00 | 0.00 | 82 | 1011.8 |
| 20260507005034 | 82 | 120 | 25.0 | 33.0 | 0.00 | 0.00 | 0.00 | 82 | 1011.4 |
| 20260507004531 | 82 | 117 | 24.0 | 38.0 | 0.00 | 0.00 | 0.00 | 82 | 1011.7 |
| 20260507004029 | 82 | 124 | 26.0 | 38.0 | 0.00 | 0.00 | 0.00 | 82 | 1011.6 |
| 20260507003524 | 82 | 133 | 25.0 | 35.0 | 0.00 | 0.00 | 0.00 | 82 | 1011.5 |
| 20260507003019 | 82 | 129 | 26.0 | 33.0 | 0.00 | 0.00 | 0.00 | 82 | 1011.5 |
| 20260507002516 | 82 | 122 | 14.0 | 23.0 | 0.00 | 0.00 | 0.00 | 81 | 1011.6 |
| 20260507002013 | 82 | 104 | 26.0 | 38.0 | 0.00 | 0.00 | 0.00 | 81 | 1011.6 |
| 20260507001509 | 82 | 135 | 21.0 | 28.0 | 0.00 | 0.00 | 0.00 | 81 | 1011.4 |
| 20260507001007 | 82 | 110 | 27.0 | 33.0 | 0.00 | 0.00 | 0.00 | 81 | 1011.5 |
| 20260507000502 | 82 | 102 | 22.0 | 30.0 | 0.00 | 0.00 | 0.00 | 81 | 1011.5 |
| 20260506235957 | 82 | 99 | 19.0 | 28.0 | 0.00 | 0.00 | 0.00 | 81 | 1011.5 |
| 20260506235455 | 82 | 73 | 16.0 | 28.0 | 0.00 | 0.00 | 0.00 | 81 | 1011.6 |
| 20260506234951 | 82 | 89 | 19.0 | 35.0 | 0.00 | 0.00 | 0.00 | 81 | 1011.5 |
| 20260506234449 | 82 | 103 | 21.0 | 35.0 | 0.00 | 0.00 | 0.00 | 81 | 1011.3 |
| 20260506233946 | 82 | 112 | 18.0 | 28.0 | 0.00 | 0.00 | 0.00 | 81 | 1011.2 |
| 20260506233443 | 82 | 100 | 15.0 | 30.0 | 0.00 | 0.00 | 0.00 | 81 | 1011.1 |
| 20260506232939 | 82 | 122 | 14.0 | 38.0 | 0.00 | 0.00 | 0.00 | 81 | 1011.2 |
| 20260506232435 | 82 | 122 | 29.0 | 33.0 | 0.00 | 0.00 | 0.00 | 81 | 1011.0 |
| 20260506231931 | 82 | 99 | 23.0 | 35.0 | 0.00 | 0.00 | 0.00 | 81 | 1011.2 |
| 20260506231429 | 82 | 112 | 20.0 | 43.0 | 0.00 | 0.00 | 0.00 | 80 | 1011.1 |
| 20260506230926 | 82 | 117 | 16.0 | 28.0 | 0.00 | 0.00 | 0.00 | 80 | 1011.1 |
| 20260506230422 | 82 | 115 | 20.0 | 25.0 | 0.00 | 0.00 | 0.00 | 80 | 1011.0 |
| 20260506225919 | 82 | 116 | 23.0 | 35.0 | 0.00 | 0.00 | 0.00 | 80 | 1010.8 |
| 20260506225416 | 82 | 105 | 20.0 | 35.0 | 0.00 | 0.00 | 0.00 | 80 | 1010.6 |
| 20260506224913 | 83 | 129 | 24.0 | 33.0 | 0.00 | 0.00 | 0.00 | 80 | 1010.9 |
| 20260506224411 | 83 | 102 | 20.0 | 45.0 | 0.00 | 0.00 | 0.00 | 80 | 1010.8 |
| 20260506223906 | 83 | 95 | 17.0 | 35.0 | 0.00 | 0.00 | 0.00 | 79 | 1010.7 |
| 20260506223402 | 83 | 128 | 25.0 | 38.0 | 0.00 | 0.00 | 0.00 | 79 | 1010.7 |
| 20260506222859 | 83 | 84 | 19.0 | 48.0 | 0.00 | 0.00 | 0.00 | 78 | 1010.6 |
| 20260506222355 | 83 | 103 | 24.0 | 30.0 | 0.00 | 0.00 | 0.00 | 78 | 1010.6 |
| 20260506221853 | 83 | 118 | 28.0 | 40.0 | 0.00 | 0.00 | 0.00 | 78 | 1010.4 |
| 20260506221350 | 83 | 74 | 25.0 | 40.0 | 0.00 | 0.00 | 0.00 | 77 | 1010.5 |
| 20260506220848 | 84 | 110 | 25.0 | 33.0 | 0.00 | 0.00 | 0.00 | 77 | 1010.5 |
| 20260506220343 | 84 | 88 | 19.0 | 33.0 | 0.00 | 0.00 | 0.00 | 77 | 1010.5 |
| 20260506215840 | 84 | 97 | 19.0 | 43.0 | 0.00 | 0.00 | 0.00 | 77 | 1010.6 |
| 20260506215336 | 84 | 138 | 27.0 | 40.0 | 0.00 | 0.00 | 0.00 | 76 | 1010.5 |
| 20260506214832 | 85 | 109 | 22.0 | 40.0 | 0.00 | 0.00 | 0.00 | 76 | 1010.4 |
| 20260506214329 | 85 | 69 | 13.0 | 30.0 | 0.00 | 0.00 | 0.00 | 76 | 1010.5 |
| 20260506213827 | 85 | 105 | 13.0 | 38.0 | 0.00 | 0.00 | 0.00 | 76 | 1010.5 |
| 20260506213324 | 85 | 132 | 25.0 | 38.0 | 0.00 | 0.00 | 0.00 | 75 | 1010.5 |
| 20260506212821 | 85 | 77 | 17.0 | 28.0 | 0.00 | 0.00 | 0.00 | 75 | 1010.4 |
| 20260506212317 | 85 | 117 | 28.0 | 40.0 | 0.00 | 0.00 | 0.00 | 75 | 1010.4 |
| 20260506211812 | 86 | 73 | 12.0 | 33.0 | 0.00 | 0.00 | 0.00 | 75 | 1010.4 |
| 20260506211308 | 86 | 119 | 23.0 | 33.0 | 0.00 | 0.00 | 0.00 | 73 | 1010.4 |
| 20260506210806 | 86 | 103 | 15.0 | 33.0 | 0.00 | 0.00 | 0.00 | 73 | 1010.4 |
| 20260506210303 | 86 | 80 | 25.0 | 30.0 | 0.00 | 0.00 | 0.00 | 73 | 1010.4 |
| 20260506205800 | 87 | 96 | 15.0 | 35.0 | 0.00 | 0.00 | 0.00 | 72 | 1010.4 |
| 20260506205255 | 87 | 132 | 15.0 | 25.0 | 0.00 | 0.00 | 0.00 | 73 | 1010.5 |
| 20260506204752 | 87 | 101 | 17.0 | 33.0 | 0.00 | 0.00 | 0.00 | 73 | 1010.5 |
| 20260506204250 | 87 | 129 | 20.0 | 25.0 | 0.00 | 0.00 | 0.00 | 73 | 1010.7 |
| 20260506203748 | 87 | 113 | 20.0 | 30.0 | 0.00 | 0.00 | 0.00 | 72 | 1010.7 |
| 20260506203245 | 87 | 93 | 23.0 | 40.0 | 0.00 | 0.00 | 0.00 | 72 | 1010.6 |
| 20260506202742 | 87 | 145 | 17.0 | 25.0 | 0.00 | 0.00 | 0.00 | 72 | 1010.7 |
| 20260506202238 | 87 | 113 | 21.0 | 33.0 | 0.00 | 0.00 | 0.00 | 73 | 1010.6 |
| 20260506201735 | 87 | 126 | 25.0 | 48.0 | 0.00 | 0.00 | 0.00 | 72 | 1010.8 |
| 20260506201232 | 88 | 118 | 23.0 | 30.0 | 0.00 | 0.00 | 0.00 | 71 | 1011.0 |
| 20260506200729 | 87 | 112 | 17.0 | 33.0 | 0.00 | 0.00 | 0.00 | 72 | 1010.7 |
| 20260506200226 | 87 | 115 | 24.0 | 33.0 | 0.00 | 0.00 | 0.00 | 73 | 1010.8 |
| 20260506195722 | 86 | 115 | 16.0 | 38.0 | 0.00 | 0.00 | 0.00 | 74 | 1011.2 |
| 20260506195218 | 86 | 132 | 24.0 | 38.0 | 0.00 | 0.00 | 0.00 | 73 | 1011.0 |
| 20260506194715 | 86 | 122 | 18.0 | 40.0 | 0.00 | 0.00 | 0.00 | 74 | 1011.2 |
| 20260506194212 | 87 | 115 | 20.0 | 45.0 | 0.00 | 0.00 | 0.00 | 74 | 1010.9 |
| 20260506193710 | 87 | 108 | 11.0 | 28.0 | 0.00 | 0.00 | 0.00 | 73 | 1011.1 |
| 20260506193207 | 87 | 103 | 25.0 | 35.0 | 0.00 | 0.00 | 0.00 | 74 | 1011.1 |
| 20260506192703 | 86 | 121 | 17.0 | 43.0 | 0.00 | 0.00 | 0.00 | 74 | 1011.1 |
| 20260506192200 | 86 | 108 | 23.0 | 50.0 | 0.00 | 0.00 | 0.00 | 74 | 1011.0 |
| 20260506191657 | 87 | 133 | 24.0 | 35.0 | 0.00 | 0.00 | 0.00 | 73 | 1011.1 |
| 20260506191153 | 86 | 103 | 31.0 | 45.0 | 0.00 | 0.00 | 0.00 | 74 | 1011.1 |
| 20260506190650 | 86 | 121 | 26.0 | 40.0 | 0.00 | 0.00 | 0.00 | 74 | 1011.0 |
| 20260506190147 | 86 | 134 | 27.0 | 45.0 | 0.00 | 0.00 | 0.00 | 74 | 1011.3 |
| 20260506185644 | 87 | 97 | 26.0 | 38.0 | 0.00 | 0.00 | 0.00 | 74 | 1011.3 |
| 20260506185140 | 87 | 111 | 24.0 | 30.0 | 0.00 | 0.00 | 0.00 | 74 | 1011.1 |
| 20260506184638 | 87 | 110 | 27.0 | 38.0 | 0.00 | 0.00 | 0.00 | 73 | 1011.4 |
| 20260506184135 | 87 | 94 | 22.0 | 40.0 | 0.00 | 0.00 | 0.00 | 74 | 1011.4 |
| 20260506183631 | 87 | 104 | 23.0 | 45.0 | 0.00 | 0.00 | 0.00 | 73 | 1011.6 |
| 20260506183127 | 87 | 139 | 32.0 | 43.0 | 0.00 | 0.00 | 0.00 | 74 | 1011.7 |
| 20260506182625 | 87 | 136 | 30.0 | 38.0 | 0.00 | 0.00 | 0.00 | 74 | 1011.6 |
| 20260506182122 | 87 | 80 | 28.0 | 48.0 | 0.00 | 0.00 | 0.00 | 74 | 1011.8 |
| 20260506181620 | 87 | 132 | 24.0 | 43.0 | 0.00 | 0.00 | 0.00 | 74 | 1011.7 |
| 20260506181117 | 87 | 118 | 31.0 | 48.0 | 0.00 | 0.00 | 0.00 | 73 | 1011.9 |
| 20260506180614 | 87 | 123 | 30.0 | 43.0 | 0.00 | 0.00 | 0.00 | 72 | 1012.0 |
| 20260506180110 | 87 | 107 | 24.0 | 48.0 | 0.00 | 0.00 | 0.00 | 73 | 1012.1 |
| 20260506175606 | 87 | 132 | 28.0 | 43.0 | 0.00 | 0.00 | 0.00 | 73 | 1012.2 |
| 20260506175102 | 87 | 123 | 28.0 | 38.0 | 0.00 | 0.00 | 0.00 | 73 | 1012.3 |
| 20260506174601 | 87 | 123 | 28.0 | 33.0 | 0.00 | 0.00 | 0.00 | 72 | 1012.3 |
| 20260506174057 | 87 | 111 | 16.0 | 30.0 | 0.00 | 0.00 | 0.00 | 73 | 1012.5 |
| 20260506173555 | 88 | 139 | 29.0 | 43.0 | 0.00 | 0.00 | 0.00 | 72 | 1012.6 |
| 20260506173052 | 88 | 133 | 17.0 | 25.0 | 0.00 | 0.00 | 0.00 | 72 | 1012.7 |
| 20260506172549 | 87 | 111 | 15.0 | 33.0 | 0.00 | 0.00 | 0.00 | 74 | 1012.7 |
| 20260506172045 | 88 | 123 | 21.0 | 25.0 | 0.00 | 0.00 | 0.00 | 72 | 1012.9 |
| 20260506171543 | 88 | 142 | 24.0 | 35.0 | 0.00 | 0.00 | 0.00 | 72 | 1013.0 |
| 20260506171041 | 88 | 102 | 22.0 | 30.0 | 0.00 | 0.00 | 0.00 | 72 | 1013.2 |
| 20260506170538 | 87 | 125 | 24.0 | 45.0 | 0.00 | 0.00 | 0.00 | 73 | 1013.2 |
| 20260506170035 | 88 | 124 | 20.0 | 33.0 | 0.00 | 0.00 | 0.00 | 72 | 1013.3 |
| 20260506165533 | 87 | 157 | 25.0 | 43.0 | 0.00 | 0.00 | 0.00 | 73 | 1013.5 |
| 20260506165029 | 87 | 96 | 23.0 | 28.0 | 0.00 | 0.00 | 0.00 | 73 | 1013.3 |
| 20260506164526 | 87 | 104 | 25.0 | 35.0 | 0.00 | 0.00 | 0.00 | 72 | 1013.5 |
| 20260506164023 | 87 | 127 | 18.0 | 38.0 | 0.00 | 0.00 | 0.00 | 73 | 1013.5 |
| 20260506163520 | 87 | 110 | 19.0 | 35.0 | 0.00 | 0.00 | 0.00 | 73 | 1013.7 |
| 20260506163015 | 87 | 117 | 22.0 | 33.0 | 0.00 | 0.00 | 0.00 | 73 | 1013.7 |
| 20260506162512 | 86 | 109 | 20.0 | 30.0 | 0.00 | 0.00 | 0.00 | 74 | 1013.7 |
| 20260506162009 | 86 | 121 | 28.0 | 40.0 | 0.00 | 0.00 | 0.00 | 73 | 1013.7 |
| 20260506161507 | 87 | 98 | 26.0 | 35.0 | 0.00 | 0.00 | 0.00 | 73 | 1013.8 |
| 20260506161003 | 87 | 109 | 20.0 | 35.0 | 0.00 | 0.00 | 0.00 | 73 | 1013.6 |
| 20260506160501 | 87 | 124 | 27.0 | 35.0 | 0.00 | 0.00 | 0.00 | 73 | 1013.7 |
| 20260506155958 | 87 | 100 | 21.0 | 38.0 | 0.00 | 0.00 | 0.00 | 73 | 1013.7 |
| 20260506155457 | 87 | 113 | 28.0 | 40.0 | 0.00 | 0.00 | 0.00 | 73 | 1013.8 |
| 20260506153628 | 87 | 91 | 32.0 | 43.0 | 0.00 | 0.00 | 0.00 | 73 | 1013.7 |
| 20260506153125 | 86 | 118 | 23.0 | 35.0 | 0.00 | 0.00 | 0.00 | 74 | 1013.6 |
| 20260506152622 | 86 | 119 | 32.0 | 43.0 | 0.00 | 0.00 | 0.00 | 73 | 1013.8 |
| 20260506152120 | 86 | 110 | 26.0 | 35.0 | 0.00 | 0.00 | 0.00 | 73 | 1013.8 |
| 20260506151618 | 86 | 125 | 21.0 | 40.0 | 0.00 | 0.00 | 0.00 | 74 | 1013.7 |
| 20260506151115 | 86 | 149 | 31.0 | 38.0 | 0.00 | 0.00 | 0.00 | 73 | 1013.5 |
| 20260506150612 | 87 | 118 | 31.0 | 40.0 | 0.00 | 0.00 | 0.00 | 73 | 1013.7 |
| 20260506150108 | 86 | 162 | 21.0 | 35.0 | 0.00 | 0.00 | 0.00 | 74 | 1013.8 |
| 20260506145605 | 86 | 123 | 23.0 | 40.0 | 0.00 | 0.00 | 0.00 | 75 | 1013.7 |
| 20260506145102 | 85 | 133 | 28.0 | 40.0 | 0.00 | 0.00 | 0.00 | 75 | 1013.6 |
| 20260506144559 | 86 | 134 | 31.0 | 45.0 | 0.00 | 0.00 | 0.00 | 74 | 1013.5 |
| 20260506144056 | 86 | 101 | 30.0 | 40.0 | 0.00 | 0.00 | 0.00 | 74 | 1013.7 |
| 20260506143554 | 86 | 160 | 26.0 | 38.0 | 0.00 | 0.00 | 0.00 | 75 | 1013.6 |
| 20260506143052 | 86 | 113 | 33.0 | 40.0 | 0.00 | 0.00 | 0.00 | 75 | 1013.8 |
| 20260506142550 | 86 | 98 | 25.0 | 40.0 | 0.00 | 0.00 | 0.00 | 75 | 1013.8 |
| 20260506142048 | 85 | 71 | 23.0 | 38.0 | 0.00 | 0.00 | 0.00 | 75 | 1014.0 |
| 20260506141545 | 85 | 111 | 31.0 | 45.0 | 0.00 | 0.00 | 0.00 | 75 | 1014.0 |
| 20260506141043 | 86 | 103 | 34.0 | 40.0 | 0.00 | 0.00 | 0.00 | 75 | 1014.0 |
| 20260506140540 | 85 | 121 | 28.0 | 45.0 | 0.00 | 0.00 | 0.00 | 75 | 1013.8 |
| 20260506140038 | 85 | 104 | 35.0 | 48.0 | 0.00 | 0.00 | 0.00 | 75 | 1014.0 |
| 20260506135534 | 86 | 117 | 22.0 | 38.0 | 0.00 | 0.00 | 0.00 | 75 | 1013.9 |
| 20260506135030 | 85 | 111 | 19.0 | 35.0 | 0.00 | 0.00 | 0.00 | 76 | 1013.8 |
| 20260506134527 | 85 | 100 | 26.0 | 35.0 | 0.00 | 0.00 | 0.00 | 76 | 1013.6 |
| 20260506134023 | 85 | 106 | 31.0 | 40.0 | 0.00 | 0.00 | 0.00 | 75 | 1013.7 |
| 20260506133520 | 85 | 97 | 26.0 | 40.0 | 0.00 | 0.00 | 0.00 | 75 | 1013.7 |
| 20260506133017 | 85 | 124 | 23.0 | 38.0 | 0.00 | 0.00 | 0.00 | 75 | 1013.8 |
| 20260506132514 | 85 | 105 | 26.0 | 38.0 | 0.00 | 0.00 | 0.00 | 75 | 1013.8 |
| 20260506132012 | 85 | 143 | 35.0 | 43.0 | 0.00 | 0.00 | 0.00 | 75 | 1013.7 |
| 20260506131509 | 85 | 112 | 27.0 | 43.0 | 0.00 | 0.00 | 0.00 | 75 | 1013.7 |
| 20260506131005 | 85 | 119 | 31.0 | 45.0 | 0.00 | 0.00 | 0.00 | 75 | 1013.8 |
| 20260506130502 | 85 | 108 | 27.0 | 35.0 | 0.00 | 0.00 | 0.00 | 75 | 1013.6 |
| 20260506125959 | 85 | 102 | 23.0 | 35.0 | 0.00 | 0.00 | 0.00 | 76 | 1013.7 |
| 20260506125458 | 84 | 131 | 26.0 | 45.0 | 0.00 | 0.00 | 0.00 | 76 | 1013.6 |
| 20260506124955 | 84 | 117 | 24.0 | 33.0 | 0.00 | 0.00 | 0.00 | 76 | 1013.6 |
| 20260506124453 | 84 | 115 | 31.0 | 38.0 | 0.00 | 0.00 | 0.00 | 76 | 1013.6 |
| 20260506123950 | 84 | 104 | 17.0 | 38.0 | 0.00 | 0.00 | 0.00 | 77 | 1013.6 |
| 20260506123448 | 84 | 139 | 23.0 | 45.0 | 0.00 | 0.00 | 0.00 | 77 | 1013.4 |
| 20260506122946 | 84 | 117 | 20.0 | 40.0 | 0.00 | 0.00 | 0.00 | 77 | 1013.3 |
| 20260506122442 | 83 | 109 | 21.0 | 38.0 | 0.00 | 0.00 | 0.00 | 77 | 1013.3 |
| 20260506121941 | 83 | 122 | 29.0 | 43.0 | 0.00 | 0.00 | 0.00 | 77 | 1013.4 |
| 20260506121437 | 83 | 116 | 27.0 | 45.0 | 0.00 | 0.00 | 0.00 | 78 | 1013.4 |
| 20260506120934 | 83 | 110 | 34.0 | 45.0 | 0.00 | 0.00 | 0.00 | 78 | 1013.4 |
| 20260506120432 | 83 | 136 | 26.0 | 38.0 | 0.00 | 0.00 | 0.00 | 78 | 1013.1 |
| 20260506115929 | 82 | 117 | 29.0 | 43.0 | 0.00 | 0.00 | 0.00 | 79 | 1013.3 |
| 20260506115427 | 82 | 114 | 28.0 | 38.0 | 0.00 | 0.00 | 0.00 | 79 | 1013.3 |
| 20260506114925 | 82 | 101 | 27.0 | 35.0 | 0.00 | 0.00 | 0.00 | 79 | 1013.1 |
| 20260506114423 | 82 | 151 | 28.0 | 38.0 | 0.00 | 0.00 | 0.00 | 79 | 1013.4 |
| 20260506113921 | 82 | 126 | 21.0 | 38.0 | 0.00 | 0.00 | 0.00 | 79 | 1013.2 |
| 20260506113418 | 82 | 125 | 27.0 | 33.0 | 0.00 | 0.00 | 0.00 | 80 | 1013.2 |
| 20260506112914 | 82 | 107 | 26.0 | 45.0 | 0.00 | 0.00 | 0.00 | 79 | 1013.1 |
| 20260506112412 | 81 | 110 | 26.0 | 38.0 | 0.00 | 0.00 | 0.00 | 80 | 1013.2 |
| 20260506111909 | 82 | 128 | 19.0 | 28.0 | 0.00 | 0.00 | 0.00 | 80 | 1013.0 |
| 20260506111407 | 81 | 135 | 21.0 | 38.0 | 0.00 | 0.00 | 0.00 | 80 | 1013.0 |
| 20260506110904 | 81 | 115 | 26.0 | 38.0 | 0.00 | 0.00 | 0.00 | 80 | 1013.0 |
| 20260506110402 | 81 | 125 | 25.0 | 30.0 | 0.00 | 0.00 | 0.00 | 81 | 1012.9 |
| 20260506105858 | 81 | 140 | 22.0 | 33.0 | 0.00 | 0.00 | 0.00 | 81 | 1012.9 |
| 20260506105354 | 81 | 101 | 13.0 | 30.0 | 0.00 | 0.00 | 0.00 | 81 | 1012.6 |
| 20260506104852 | 81 | 100 | 17.0 | 28.0 | 0.00 | 0.00 | 0.00 | 81 | 1012.6 |
| 20260506104350 | 80 | 120 | 17.0 | 23.0 | 0.00 | 0.00 | 0.00 | 81 | 1012.6 |
| 20260506103847 | 80 | 107 | 18.0 | 25.0 | 0.00 | 0.00 | 0.00 | 81 | 1012.6 |
| 20260506103345 | 80 | 142 | 17.0 | 25.0 | 0.00 | 0.00 | 0.00 | 81 | 1012.5 |
| 20260506102842 | 80 | 144 | 19.0 | 30.0 | 0.00 | 0.00 | 0.00 | 81 | 1012.6 |
| 20260506102340 | 80 | 116 | 10.0 | 30.0 | 0.00 | 0.00 | 0.00 | 81 | 1012.2 |
| 20260506101837 | 80 | 134 | 12.0 | 23.0 | 0.00 | 0.00 | 0.00 | 81 | 1012.3 |
| 20260506101333 | 80 | 118 | 17.0 | 28.0 | 0.00 | 0.00 | 0.00 | 81 | 1012.2 |
| 20260506100831 | 80 | 121 | 13.0 | 25.0 | 0.00 | 0.00 | 0.00 | 81 | 1012.0 |
| 20260506100329 | 80 | 101 | 17.0 | 33.0 | 0.00 | 0.00 | 0.00 | 81 | 1012.1 |
| 20260506095827 | 80 | 130 | 19.0 | 33.0 | 0.00 | 0.00 | 0.00 | 80 | 1012.3 |
| 20260506095323 | 80 | 160 | 17.0 | 25.0 | 0.00 | 0.00 | 0.00 | 81 | 1012.3 |
| 20260506094820 | 80 | 145 | 23.0 | 33.0 | 0.00 | 0.00 | 0.00 | 80 | 1012.1 |
| 20260506094319 | 80 | 111 | 24.0 | 43.0 | 0.00 | 0.00 | 0.00 | 81 | 1012.2 |
| 20260506093817 | 80 | 111 | 18.0 | 30.0 | 0.00 | 0.00 | 0.00 | 80 | 1012.1 |
| 20260506093313 | 80 | 136 | 16.0 | 28.0 | 0.00 | 0.00 | 0.00 | 80 | 1012.4 |
| 20260506092812 | 80 | 148 | 19.0 | 25.0 | 0.00 | 0.00 | 0.00 | 80 | 1012.2 |
| 20260506092309 | 80 | 151 | 20.0 | 28.0 | 0.00 | 0.00 | 0.00 | 80 | 1012.3 |
| 20260506091806 | 80 | 126 | 26.0 | 30.0 | 0.00 | 0.00 | 0.00 | 80 | 1012.1 |
| 20260506091304 | 80 | 120 | 21.0 | 35.0 | 0.00 | 0.00 | 0.00 | 80 | 1012.1 |
| 20260506090801 | 80 | 100 | 19.0 | 33.0 | 0.00 | 0.00 | 0.00 | 80 | 1012.1 |
| 20260506090258 | 80 | 149 | 18.0 | 30.0 | 0.00 | 0.00 | 0.00 | 80 | 1011.9 |
| 20260506085755 | 80 | 100 | 22.0 | 28.0 | 0.00 | 0.00 | 0.00 | 80 | 1012.0 |
| 20260506085251 | 80 | 156 | 23.0 | 30.0 | 0.00 | 0.00 | 0.00 | 80 | 1011.8 |
| 20260506084748 | 80 | 142 | 21.0 | 33.0 | 0.00 | 0.00 | 0.00 | 80 | 1011.7 |
| 20260506084244 | 80 | 113 | 21.0 | 30.0 | 0.00 | 0.00 | 0.00 | 80 | 1012.0 |
| 20260506083741 | 80 | 122 | 10.0 | 20.0 | 0.00 | 0.00 | 0.00 | 80 | 1011.7 |
| 20260506083239 | 80 | 106 | 15.0 | 38.0 | 0.00 | 0.00 | 0.00 | 80 | 1011.7 |
| 20260506082736 | 80 | 124 | 21.0 | 28.0 | 0.00 | 0.00 | 0.00 | 80 | 1011.7 |
| 20260506082231 | 80 | 122 | 16.0 | 23.0 | 0.00 | 0.00 | 0.00 | 80 | 1011.8 |
| 20260506081730 | 80 | 124 | 26.0 | 35.0 | 0.00 | 0.00 | 0.00 | 80 | 1011.7 |
| 20260506081227 | 80 | 124 | 27.0 | 33.0 | 0.00 | 0.00 | 0.00 | 80 | 1011.7 |
| 20260506080725 | 80 | 96 | 14.0 | 28.0 | 0.00 | 0.00 | 0.00 | 80 | 1011.5 |
| 20260506080221 | 80 | 129 | 16.0 | 33.0 | 0.00 | 0.00 | 0.00 | 80 | 1011.7 |
| 20260506073205 | 80 | 143 | 29.0 | 40.0 | 0.00 | 0.00 | 0.00 | 79 | 1011.6 |
| 20260506072701 | 80 | 119 | 25.0 | 38.0 | 0.00 | 0.00 | 0.00 | 80 | 1011.7 |
| 20260506072159 | 80 | 141 | 16.0 | 35.0 | 0.00 | 0.00 | 0.00 | 80 | 1011.7 |
| 20260506071656 | 80 | 144 | 22.0 | 35.0 | 0.00 | 0.00 | 0.00 | 80 | 1011.5 |
| 20260506071154 | 80 | 83 | 25.0 | 38.0 | 0.00 | 0.00 | 0.00 | 80 | 1011.5 |
| 20260506070651 | 80 | 126 | 17.0 | 30.0 | 0.00 | 0.00 | 0.00 | 80 | 1011.4 |
| 20260506070148 | 80 | 120 | 24.0 | 40.0 | 0.00 | 0.00 | 0.00 | 80 | 1011.5 |
| 20260506062125 | 80 | 120 | 17.0 | 40.0 | 0.00 | 0.00 | 0.00 | 79 | 1012.0 |
| 20260506061621 | 80 | 128 | 24.0 | 35.0 | 0.00 | 0.00 | 0.00 | 79 | 1012.1 |
| 20260506061119 | 80 | 116 | 16.0 | 40.0 | 0.00 | 0.00 | 0.00 | 79 | 1012.2 |
| 20260506060617 | 80 | 144 | 25.0 | 35.0 | 0.00 | 0.00 | 0.00 | 79 | 1012.1 |
| 20260506060114 | 80 | 119 | 24.0 | 33.0 | 0.00 | 0.00 | 0.00 | 79 | 1012.1 |
| 20260506051046 | 80 | 127 | 27.0 | 35.0 | 0.00 | 0.00 | 0.00 | 81 | 1012.1 |
| 20260506050543 | 80 | 110 | 20.0 | 38.0 | 0.00 | 0.00 | 0.00 | 81 | 1012.5 |
| 20260506045034 | 80 | 158 | 14.0 | 35.0 | 0.00 | 0.00 | 0.00 | 81 | 1012.7 |
| 20260506044532 | 80 | 121 | 18.0 | 38.0 | 0.00 | 0.00 | 0.00 | 81 | 1012.7 |
| 20260506044028 | 81 | 118 | 24.0 | 28.0 | 0.00 | 0.00 | 0.00 | 81 | 1012.6 |
| 20260506043526 | 80 | 126 | 23.0 | 30.0 | 0.00 | 0.00 | 0.00 | 81 | 1012.8 |
| 20260506043024 | 80 | 122 | 23.0 | 38.0 | 0.00 | 0.00 | 0.00 | 81 | 1012.8 |
| 20260506042523 | 80 | 128 | 30.0 | 38.0 | 0.00 | 0.00 | 0.00 | 81 | 1012.8 |
| 20260506042020 | 81 | 63 | 18.0 | 25.0 | 0.00 | 0.00 | 0.00 | 82 | 1012.8 |
| 20260506041519 | 81 | 114 | 22.0 | 35.0 | 0.00 | 0.00 | 0.00 | 81 | 1012.8 |
| 20260506041015 | 80 | 137 | 20.0 | 40.0 | 0.00 | 0.00 | 0.00 | 81 | 1012.8 |
| 20260506040513 | 80 | 114 | 26.0 | 40.0 | 0.00 | 0.00 | 0.00 | 81 | 1012.8 |
| 20260506040009 | 80 | 126 | 22.0 | 35.0 | 0.00 | 0.00 | 0.00 | 82 | 1012.7 |
| 20260506035506 | 80 | 124 | 22.0 | 38.0 | 0.00 | 0.00 | 0.00 | 82 | 1012.9 |
| 20260506035002 | 81 | 114 | 19.0 | 35.0 | 0.00 | 0.00 | 0.00 | 81 | 1012.9 |
| 20260506034500 | 81 | 90 | 19.0 | 43.0 | 0.00 | 0.00 | 0.00 | 82 | 1013.1 |
| 20260506033957 | 81 | 108 | 31.0 | 38.0 | 0.00 | 0.00 | 0.00 | 81 | 1012.9 |
| 20260506033454 | 81 | 142 | 20.0 | 33.0 | 0.00 | 0.00 | 0.00 | 81 | 1013.1 |
| 20260506032951 | 81 | 146 | 23.0 | 35.0 | 0.00 | 0.00 | 0.00 | 81 | 1013.0 |
| 20260506032448 | 81 | 107 | 12.0 | 25.0 | 0.00 | 0.00 | 0.00 | 82 | 1013.0 |
| 20260506031944 | 81 | 135 | 20.0 | 33.0 | 0.00 | 0.00 | 0.00 | 81 | 1013.0 |
| 20260506031442 | 81 | 135 | 24.0 | 35.0 | 0.00 | 0.00 | 0.00 | 81 | 1012.9 |